Tracking 19248 objects as of 26-Sep-2018
HD Live streaming from Space Station
objects crossing your sky now

FENGYUN 1C DEB

Track FENGYUN 1C DEB now!
10-day predictions


NORAD ID: 37686
Int'l Code: 1999-025ELB
Perigee: 838.8 km
Apogee: 1,443.9 km
Inclination: 99.1 °
Period: 108.0 minutes
Semi major axis: 7512 km
RCS: 0.0094 m2 (small)
Launch date: May 10, 1999
Source: People's Republic of China (PRC)
Launch site: Taiyaun Space Center, China (TSC)

Note: This is SATELLITE DEBRIS
aabbcc
Your satellite tracking list
Your tracking list is empty




NASA's NSSDC Master Catalog

Two Line Element Set (TLE):
1 37686U 99025ELB 18266.56005965 +.00000223 +00000-0 +33213-3 0  9996
2 37686 099.0907 184.1739 0402685 080.1139 040.0861 13.33337144448003
Source of the keplerian elements: AFSPC